Regional Weather Roundup
Issued by NWS Charleston, WV

Home | Current Version | Previous Version | Graphics & Text | Print | Product List | Glossary On
Versions: 1 2 3 4 5 6 7 8 9 10 11 12 13 14 15 16 17 18 19 20 21 22 23 24 25 26 27 28 29 30 31 32 33 34 35 36 37 38 39 40 41 42 43 44 45 46 47 48 49 50
000
ASUS41 KRLX 092310
RWRRLX
West Virginia Regional Weather Roundup
National Weather Service Charleston WV
600 PM EST FRI DEC 09 2016

Note: "fair" indicates few or no clouds below 12,000 feet with no
significant weather and/or obstructions to visibility.

WVZ003-100000-
Northern Panhandle of West Virginia

CITY           SKY/WX    TMP DP  RH WIND       PRES   REMARKS
WHEELING       LGT SNOW  24  18  77 W14       30.42R
$$

WVZ009-100000-
Northwest West Virginia

CITY           SKY/WX    TMP DP  RH WIND       PRES   REMARKS
PARKERSBURG    CLOUDY    27  13  55 W8        30.52R
$$

WVZ006-100000-
Western West Virginia

CITY           SKY/WX    TMP DP  RH WIND       PRES   REMARKS
HUNTINGTON     CLOUDY    25  13  60 SW7       30.53R
$$

WVZ015-100000-
West Central West Virginia

CITY           SKY/WX    TMP DP  RH WIND       PRES   REMARKS
CHARLESTON     FLURRIES  25  13  60 NW8       30.50S
$$

WVZ022-031-100000-
North Central West Virginia

CITY           SKY/WX    TMP DP  RH WIND       PRES   REMARKS
CLARKSBURG     CLOUDY    26  16  65 W8        30.45R
MORGANTOWN     CLOUDY    27  15  61 SW7       30.43R
$$

WVZ025-035-042-045-100000-
Southern West Virginia

CITY           SKY/WX    TMP DP  RH WIND       PRES   REMARKS
BECKLEY        CLOUDY    20  11  68 W6        30.39R
LOGAN          CLOUDY    23  14  68 CALM      30.46S
BLUEFIELD      MOCLDY    17   8  67 NW6       30.37S WCI   9
LEWISBURG      CLOUDY    21  10  63 N7        30.38S
$$

WVZ047-100000-
Northern Mountains of West Virginia

CITY           SKY/WX    TMP DP  RH WIND       PRES   REMARKS
ELKINS         LGT SNOW  21  14  74 VRB3      30.40R
$$

WVZ052-100000-
Eastern Panhandle of West Virginia

CITY           SKY/WX    TMP DP  RH WIND       PRES   REMARKS
MARTINSBURG    MOCLDY    31  16  54 W10       30.40R
PETERSBURG     CLOUDY    29  16  58 W8        30.44R
$$




USA.gov is the U.S. government's official web portal to all federal, state and local government web resources and services.